Hourly Data Report for November 06, 2020

OTTAWA INTL A
ONTARIO
Current Station Operator: NAVCAN

45°19'00.000" N
75°40'00.000" W
114.90 m
6106001
71628
YOW

Download Data

Hourly Data (November 2020)
Hourly Data Report for November 6, 2020
TIME Temp Definition
°C
Dew Point Definition
°C
Rel Hum Definition
%
Wind Dir Definition
10's deg

Wind Spd Definition
km/h
Visibility Definition
km
Stn Press Definition
kPa
Hmdx Definition


Wind Chill Definition


Weather Definition


00:00 12.2 6.4 67 19 11 24.1 100.58     LegendNANA
01:00 11.7 6.2 69 19 8 24.1 100.55     Cloudy
02:00 11.1 6.0 71 18 10 24.1 100.47     LegendNANA
03:00 11.3 6.3 71 20 14 24.1 100.45     LegendNANA
04:00 9.9 6.1 77 21 10 24.1 100.50     Mostly Cloudy
05:00 9.0 5.8 80 19 9 24.1 100.47     LegendNANA
06:00 8.3 5.8 84 20 7 24.1 100.53     LegendNANA
07:00 8.0 5.5 84 21 10 24.1 100.53     Clear
08:00 10.0 6.7 80 21 17 24.1 100.53     LegendNANA
09:00 12.0 7.2 73 23 20 24.1 100.52     LegendNANA
10:00 13.4 7.7 68 22 18 24.1 100.49     Mostly Cloudy
11:00 15.3 8.2 62 22 20 24.1 100.50     LegendNANA
12:00 15.4 8.2 62 22 20 24.1 100.43     LegendNANA
13:00 16.6 8.5 59 22 21 24.1 100.36     Mostly Cloudy
14:00 17.6 8.5 55 23 17 24.1 100.30     LegendNANA
15:00 18.1 8.1 52 22 23 24.1 100.29     LegendNANA
16:00 16.5 8.5 59 20 23 24.1 100.28     Mostly Cloudy
17:00 15.7 8.6 62 21 22 24.1 100.30     LegendNANA
18:00 14.4 8.2 66 21 19 24.1 100.34     LegendNANA
19:00 13.7 8.2 69 22 21 24.1 100.35     Mainly Clear
20:00 12.9 8.3 74 23 17 24.1 100.36     LegendNANA
21:00 12.3 8.4 77 23 13 24.1 100.40     LegendNANA
22:00 12.0 8.3 78 21 13 24.1 100.42     Mainly Clear
23:00 11.7 8.2 79 22 15 24.1 100.43     LegendNANA

Notes on Data Quality.

Legend

  • E = Estimated
  • M = Missing
  • NA = Not Available*
  • [empty] = Indicates an unobserved value
Date modified: